date,time,SUV Intensity [MED/Hr],UV Index,Daily total [MED],Since Last [MED]
29/07/2022,06:56:02,0.197,0.0,0.133,0.133
29/07/2022,06:57:05,0.203,0.0,0.136,0.003
29/07/2022,06:58:00,0.206,0.0,0.14,0.004
29/07/2022,06:59:00,0.209,0.0,0.143,0.003
29/07/2022,07:00:00,0.212,0.0,0.147,0.004
29/07/2022,07:01:00,0.215,0.0,0.15,0.003
29/07/2022,07:02:00,0.218,1.0,0.154,0.004
29/07/2022,07:03:00,0.223,1.0,0.157,0.003
29/07/2022,07:03:59,0.223,1.0,0.161,0.004
29/07/2022,07:05:01,0.222,1.0,0.165,0.004
29/07/2022,07:06:00,0.220,1.0,0.169,0.004
29/07/2022,07:07:00,0.229,1.0,0.172,0.003
29/07/2022,07:08:00,0.230,1.0,0.176,0.004
29/07/2022,07:09:00,0.226,1.0,0.18,0.004
29/07/2022,07:10:00,0.239,1.0,0.184,0.004
29/07/2022,07:11:00,0.245,1.0,0.188,0.004
29/07/2022,07:12:00,0.238,1.0,0.192,0.004
29/07/2022,07:13:00,0.252,1.0,0.196,0.004
29/07/2022,07:14:00,0.237,1.0,0.2,0.004
29/07/2022,07:15:00,0.246,1.0,0.204,0.004
29/07/2022,07:16:00,0.258,1.0,0.208,0.004
29/07/2022,07:17:00,0.264,1.0,0.213,0.005
29/07/2022,07:18:00,0.270,1.0,0.217,0.004
29/07/2022,07:19:00,0.279,1.0,0.222,0.005
29/07/2022,07:20:00,0.281,1.0,0.226,0.004
29/07/2022,07:21:08,0.287,1.0,0.232,0.006
29/07/2022,07:22:00,0.288,1.0,0.236,0.004
29/07/2022,07:23:00,0.297,1.0,0.241,0.005
29/07/2022,07:24:00,0.302,1.0,0.246,0.005
29/07/2022,07:24:59,0.305,1.0,0.251,0.005
29/07/2022,07:26:00,0.311,1.0,0.256,0.005
29/07/2022,07:27:00,0.318,1.0,0.261,0.005
29/07/2022,07:28:12,0.323,1.0,0.267,0.006
29/07/2022,07:30:01,0.331,1.0,0.277,0.01
29/07/2022,07:31:00,0.336,1.0,0.283,0.006
29/07/2022,07:32:01,0.341,1.0,0.288,0.005
29/07/2022,07:33:00,0.347,1.0,0.294,0.006
29/07/2022,07:34:00,0.351,1.0,0.3,0.006
29/07/2022,07:35:00,0.356,1.0,0.306,0.006
29/07/2022,07:36:00,0.361,1.0,0.312,0.006
29/07/2022,07:37:00,0.367,1.0,0.318,0.006
29/07/2022,07:38:00,0.371,1.0,0.324,0.006
29/07/2022,07:39:08,0.377,1.0,0.331,0.007
29/07/2022,07:40:00,0.382,1.0,0.337,0.006
29/07/2022,07:41:00,0.387,1.0,0.343,0.006
29/07/2022,07:42:08,0.393,1.0,0.35,0.007
29/07/2022,07:43:00,0.398,1.0,0.356,0.006
29/07/2022,07:44:00,0.404,1.0,0.363,0.007
29/07/2022,07:45:00,0.409,1.0,0.37,0.007
29/07/2022,07:46:00,0.415,1.0,0.376,0.006
29/07/2022,07:47:00,0.421,1.0,0.383,0.007
29/07/2022,07:47:59,0.427,1.0,0.39,0.007
29/07/2022,07:49:00,0.431,1.0,0.398,0.008
29/07/2022,07:50:00,0.437,1.0,0.405,0.007
29/07/2022,07:51:00,0.443,1.0,0.412,0.007
29/07/2022,07:52:08,0.448,1.0,0.421,0.009
29/07/2022,07:53:00,0.454,1.0,0.427,0.006
29/07/2022,07:54:00,0.461,1.0,0.435,0.008
29/07/2022,07:55:08,0.467,1.0,0.443,0.008
29/07/2022,07:56:00,0.474,1.0,0.45,0.007
29/07/2022,07:57:00,0.477,1.0,0.458,0.008
29/07/2022,07:58:00,0.486,1.0,0.466,0.008
29/07/2022,07:59:00,0.491,1.0,0.474,0.008
29/07/2022,08:00:00,0.499,1.0,0.483,0.009
29/07/2022,08:01:00,0.505,1.0,0.491,0.008
29/07/2022,08:02:00,0.510,1.0,0.499,0.008
29/07/2022,08:03:00,0.517,1.0,0.508,0.009
29/07/2022,08:04:00,0.522,1.0,0.517,0.009
29/07/2022,08:05:08,0.530,1.0,0.527,0.01
29/07/2022,08:06:00,0.532,1.0,0.534,0.007
29/07/2022,08:07:00,0.541,1.0,0.543,0.009
29/07/2022,08:08:00,0.548,1.0,0.552,0.009
29/07/2022,08:09:00,0.554,1.0,0.561,0.009
29/07/2022,08:10:00,0.561,1.0,0.571,0.01
29/07/2022,08:11:00,0.568,1.0,0.58,0.009
29/07/2022,08:12:03,0.576,1.0,0.59,0.01
29/07/2022,08:13:00,0.583,1.0,0.599,0.009
29/07/2022,08:14:00,0.592,1.0,0.609,0.01
29/07/2022,08:15:07,0.600,1.0,0.62,0.011
29/07/2022,08:16:00,0.604,1.0,0.629,0.009
29/07/2022,08:17:00,0.609,1.0,0.639,0.01
29/07/2022,08:18:09,0.615,1.0,0.651,0.012
29/07/2022,08:19:01,0.620,1.0,0.66,0.009
29/07/2022,08:20:00,0.626,1.0,0.67,0.01
29/07/2022,08:21:00,0.632,1.0,0.681,0.011
29/07/2022,08:22:00,0.641,1.0,0.691,0.01
29/07/2022,08:23:00,0.652,1.0,0.702,0.011
29/07/2022,08:24:00,0.658,2.0,0.713,0.011
29/07/2022,08:25:00,0.665,2.0,0.724,0.011
29/07/2022,08:26:00,0.673,2.0,0.735,0.011
29/07/2022,08:27:00,0.679,2.0,0.746,0.011
29/07/2022,08:28:00,0.686,2.0,0.758,0.012
29/07/2022,08:29:00,0.693,2.0,0.769,0.011
29/07/2022,08:30:00,0.701,2.0,0.781,0.012
29/07/2022,08:31:00,0.707,2.0,0.793,0.012
29/07/2022,08:32:00,0.714,2.0,0.804,0.011
29/07/2022,08:33:00,0.718,2.0,0.816,0.012
29/07/2022,08:34:01,0.725,2.0,0.828,0.012
29/07/2022,08:35:00,0.732,2.0,0.84,0.012
29/07/2022,08:36:00,0.740,2.0,0.853,0.013
29/07/2022,08:37:00,0.749,2.0,0.865,0.012
29/07/2022,08:38:00,0.756,2.0,0.878,0.013
29/07/2022,08:39:00,0.765,2.0,0.89,0.012
29/07/2022,08:40:00,0.773,2.0,0.903,0.013
29/07/2022,08:41:00,0.780,2.0,0.916,0.013
29/07/2022,08:42:01,0.789,2.0,0.929,0.013
29/07/2022,08:43:08,0.799,2.0,0.944,0.015
29/07/2022,08:44:00,0.806,2.0,0.956,0.012
29/07/2022,08:45:01,0.815,2.0,0.969,0.013
29/07/2022,08:46:08,0.825,2.0,0.985,0.016
29/07/2022,08:47:07,0.834,2.0,0.998,0.013
29/07/2022,08:48:01,0.838,2.0,1.011,0.013
29/07/2022,08:49:07,0.848,2.0,1.026,0.015
29/07/2022,08:50:00,0.853,2.0,1.039,0.013
29/07/2022,08:51:00,0.860,2.0,1.053,0.014
29/07/2022,08:52:00,0.868,2.0,1.068,0.015
29/07/2022,08:53:00,0.872,2.0,1.082,0.014
29/07/2022,08:54:00,0.883,2.0,1.097,0.015
29/07/2022,08:55:00,0.891,2.0,1.111,0.014
29/07/2022,08:56:08,0.899,2.0,1.128,0.017
29/07/2022,08:57:00,0.906,2.0,1.141,0.013
29/07/2022,08:58:00,0.917,2.0,1.157,0.016
29/07/2022,08:59:00,0.925,2.0,1.172,0.015
29/07/2022,09:00:00,0.934,2.0,1.187,0.015
29/07/2022,09:01:00,0.943,2.0,1.203,0.016
29/07/2022,09:02:00,0.952,2.0,1.219,0.016
29/07/2022,09:03:00,0.960,2.0,1.235,0.016
29/07/2022,09:04:02,0.966,2.0,1.251,0.016
29/07/2022,09:05:00,0.974,2.0,1.267,0.016
29/07/2022,09:06:08,0.984,2.0,1.286,0.019
29/07/2022,09:07:00,0.991,2.0,1.3,0.014
29/07/2022,09:08:00,0.999,2.0,1.316,0.016
29/07/2022,09:09:00,1.009,2.0,1.333,0.017
29/07/2022,09:10:00,1.018,2.0,1.35,0.017
29/07/2022,09:11:00,1.024,2.0,1.367,0.017
29/07/2022,09:12:00,1.036,2.0,1.384,0.017
29/07/2022,09:13:00,1.042,2.0,1.402,0.018
29/07/2022,09:14:00,1.049,2.0,1.419,0.017
29/07/2022,09:15:01,1.057,2.0,1.437,0.018
29/07/2022,09:16:00,1.065,2.0,1.454,0.017
29/07/2022,09:17:00,1.073,2.0,1.472,0.018
29/07/2022,09:18:00,1.079,2.0,1.49,0.018
29/07/2022,09:19:01,1.089,3.0,1.508,0.018
29/07/2022,09:20:00,1.100,3.0,1.526,0.018
29/07/2022,09:21:08,1.110,3.0,1.547,0.021
29/07/2022,09:22:01,1.115,3.0,1.563,0.016
29/07/2022,09:23:00,1.123,3.0,1.582,0.019
29/07/2022,09:24:00,1.132,3.0,1.601,0.019
29/07/2022,09:25:01,1.140,3.0,1.62,0.019
29/07/2022,09:26:00,1.149,3.0,1.639,0.019
29/07/2022,09:27:00,1.156,3.0,1.658,0.019
29/07/2022,09:28:00,1.166,3.0,1.677,0.019
29/07/2022,09:29:01,1.173,3.0,1.697,0.02
29/07/2022,09:30:00,1.180,3.0,1.716,0.019
29/07/2022,09:31:00,1.188,3.0,1.736,0.02
29/07/2022,09:32:00,1.194,3.0,1.756,0.02
29/07/2022,09:33:01,1.201,3.0,1.776,0.02
29/07/2022,09:34:00,1.212,3.0,1.796,0.02
29/07/2022,09:35:00,1.219,3.0,1.816,0.02
29/07/2022,09:36:02,1.229,3.0,1.837,0.021
29/07/2022,09:37:00,1.241,3.0,1.857,0.02
29/07/2022,09:38:00,1.250,3.0,1.878,0.021
29/07/2022,09:39:00,1.258,3.0,1.899,0.021
29/07/2022,09:40:00,1.269,3.0,1.92,0.021
29/07/2022,09:41:01,1.280,3.0,1.941,0.021
29/07/2022,09:42:00,1.289,3.0,1.963,0.022
29/07/2022,09:43:00,1.299,3.0,1.984,0.021
29/07/2022,09:44:02,1.305,3.0,2.007,0.023
29/07/2022,09:45:00,1.315,3.0,2.028,0.021
29/07/2022,09:46:09,1.319,3.0,2.053,0.025
29/07/2022,09:47:00,1.326,3.0,2.072,0.019
29/07/2022,09:48:00,1.331,3.0,2.094,0.022
29/07/2022,09:49:09,1.339,3.0,2.119,0.025
29/07/2022,09:50:00,1.347,3.0,2.138,0.019
29/07/2022,09:51:01,1.359,3.0,2.161,0.023
29/07/2022,09:52:00,1.368,3.0,2.184,0.023
29/07/2022,09:53:00,1.380,3.0,2.207,0.023
29/07/2022,09:54:00,1.390,3.0,2.23,0.023
29/07/2022,09:55:01,1.392,3.0,2.253,0.023
29/07/2022,09:56:00,1.399,3.0,2.276,0.023
29/07/2022,09:57:00,1.403,3.0,2.3,0.024
29/07/2022,09:58:00,1.412,3.0,2.323,0.023
29/07/2022,09:59:08,1.425,3.0,2.35,0.027
29/07/2022,10:00:00,1.438,3.0,2.37,0.02
29/07/2022,10:01:00,1.448,3.0,2.395,0.025
29/07/2022,10:02:01,1.454,3.0,2.419,0.024
29/07/2022,10:03:00,1.461,3.0,2.443,0.024
29/07/2022,10:04:00,1.467,3.0,2.467,0.024
29/07/2022,10:05:00,1.472,3.0,2.492,0.025
29/07/2022,10:06:01,1.474,3.0,2.516,0.024
29/07/2022,10:07:00,1.484,3.0,2.541,0.025
29/07/2022,10:08:00,1.482,3.0,2.566,0.025
29/07/2022,10:09:00,1.487,3.0,2.591,0.025
29/07/2022,10:10:09,1.496,3.0,2.619,0.028
29/07/2022,10:11:00,1.508,3.0,2.64,0.021
29/07/2022,10:12:00,1.519,3.0,2.666,0.026
29/07/2022,10:13:00,1.524,4.0,2.691,0.025
29/07/2022,10:14:10,1.536,4.0,2.721,0.03
29/07/2022,10:14:59,1.544,4.0,2.742,0.021
29/07/2022,10:16:01,1.553,4.0,2.768,0.026
29/07/2022,10:17:08,1.567,4.0,2.797,0.029
29/07/2022,10:18:00,1.574,4.0,2.82,0.023
29/07/2022,10:19:00,1.580,4.0,2.846,0.026
29/07/2022,10:20:01,1.583,4.0,2.873,0.027
29/07/2022,10:21:00,1.588,4.0,2.899,0.026
29/07/2022,10:22:01,1.591,4.0,2.926,0.027
29/07/2022,10:23:00,1.601,4.0,2.952,0.026
29/07/2022,10:24:00,1.604,4.0,2.979,0.027
29/07/2022,10:25:00,1.606,4.0,3.006,0.027
29/07/2022,10:26:00,1.610,4.0,3.033,0.027
29/07/2022,10:27:00,1.617,4.0,3.059,0.026
29/07/2022,10:28:00,1.625,4.0,3.086,0.027
29/07/2022,10:29:00,1.628,4.0,3.114,0.028
29/07/2022,10:30:09,1.656,4.0,3.145,0.031
29/07/2022,10:31:00,1.655,4.0,3.169,0.024
29/07/2022,10:32:01,1.667,4.0,3.196,0.027
29/07/2022,10:33:00,1.678,4.0,3.224,0.028
29/07/2022,10:34:00,1.693,4.0,3.252,0.028
29/07/2022,10:35:00,1.697,4.0,3.28,0.028
29/07/2022,10:36:01,1.703,4.0,3.309,0.029
29/07/2022,10:37:00,1.706,4.0,3.337,0.028
29/07/2022,10:38:02,1.714,4.0,3.367,0.03
29/07/2022,10:39:00,1.725,4.0,3.394,0.027
29/07/2022,10:40:00,1.725,4.0,3.423,0.029
29/07/2022,10:41:01,1.719,4.0,3.452,0.029
29/07/2022,10:42:08,1.722,4.0,3.484,0.032
29/07/2022,10:43:00,1.727,4.0,3.509,0.025
29/07/2022,10:44:00,1.735,4.0,3.538,0.029
29/07/2022,10:45:08,1.729,4.0,3.571,0.033
29/07/2022,10:46:00,1.743,4.0,3.596,0.025
29/07/2022,10:47:01,1.759,4.0,3.625,0.029
29/07/2022,10:48:08,1.772,4.0,3.658,0.033
29/07/2022,10:49:00,1.775,4.0,3.684,0.026
29/07/2022,10:50:01,1.773,4.0,3.714,0.03
29/07/2022,10:51:10,1.765,4.0,3.748,0.034
29/07/2022,10:51:59,1.778,4.0,3.772,0.024
29/07/2022,10:53:07,1.804,4.0,3.806,0.034
29/07/2022,10:54:00,1.809,4.0,3.832,0.026
29/07/2022,10:55:01,1.822,4.0,3.863,0.031
29/07/2022,10:56:00,1.846,4.0,3.893,0.03
29/07/2022,10:57:00,1.861,4.0,3.924,0.031
29/07/2022,10:58:00,1.861,4.0,3.955,0.031
29/07/2022,10:59:00,1.867,4.0,3.986,0.031
29/07/2022,11:00:00,1.865,4.0,4.017,0.031
29/07/2022,11:01:00,1.866,4.0,4.048,0.031
29/07/2022,11:02:02,1.882,4.0,4.081,0.033
29/07/2022,11:03:01,1.890,4.0,4.111,0.03
29/07/2022,11:04:00,1.896,4.0,4.143,0.032
29/07/2022,11:05:01,1.895,4.0,4.174,0.031
29/07/2022,11:06:00,1.892,4.0,4.206,0.032
29/07/2022,11:07:00,1.886,4.0,4.237,0.031
29/07/2022,11:08:01,1.889,4.0,4.269,0.032
29/07/2022,11:09:00,1.895,4.0,4.3,0.031
29/07/2022,11:10:00,1.893,4.0,4.332,0.032
29/07/2022,11:11:00,1.901,4.0,4.363,0.031
29/07/2022,11:12:01,1.905,4.0,4.395,0.032
29/07/2022,11:13:00,1.915,4.0,4.427,0.032
29/07/2022,11:14:00,1.918,4.0,4.459,0.032
29/07/2022,11:15:02,1.920,4.0,4.492,0.033
29/07/2022,11:16:09,1.934,4.0,4.527,0.035
29/07/2022,11:17:00,1.939,4.0,4.555,0.028
29/07/2022,11:18:01,1.939,4.0,4.588,0.033
29/07/2022,11:19:00,1.942,4.0,4.62,0.032
29/07/2022,11:20:17,1.955,4.0,4.661,0.041
29/07/2022,11:22:01,1.947,4.0,4.717,0.056
29/07/2022,11:23:01,1.949,4.0,4.75,0.033
29/07/2022,11:24:08,1.952,4.0,4.787,0.037
29/07/2022,11:25:00,1.947,4.0,4.815,0.028
29/07/2022,11:26:00,1.960,5.0,4.847,0.032
29/07/2022,11:27:01,1.983,5.0,4.88,0.033
29/07/2022,11:28:00,1.982,5.0,4.913,0.033
29/07/2022,11:29:00,1.982,5.0,4.945,0.032
29/07/2022,11:30:00,1.971,5.0,4.978,0.033
29/07/2022,11:31:01,1.973,5.0,5.011,0.033
29/07/2022,11:32:00,1.983,5.0,5.044,0.033
29/07/2022,11:33:00,1.988,5.0,5.077,0.033
29/07/2022,11:34:09,1.998,5.0,5.115,0.038
29/07/2022,11:35:00,2.003,5.0,5.143,0.028
29/07/2022,11:36:00,2.005,5.0,5.177,0.034
29/07/2022,11:37:09,2.000,5.0,5.215,0.038
29/07/2022,11:38:00,1.998,5.0,5.244,0.029
29/07/2022,11:39:01,2.001,5.0,5.277,0.033
29/07/2022,11:40:00,2.013,5.0,5.31,0.033
29/07/2022,11:41:00,2.017,5.0,5.344,0.034
29/07/2022,11:42:01,2.018,5.0,5.378,0.034
29/07/2022,11:43:00,2.022,5.0,5.411,0.033
29/07/2022,11:44:00,2.019,5.0,5.445,0.034
29/07/2022,11:45:01,2.022,5.0,5.479,0.034
29/07/2022,11:46:01,2.022,5.0,5.512,0.033
29/07/2022,11:47:00,2.022,5.0,5.546,0.034
29/07/2022,11:48:00,2.026,5.0,5.58,0.034
29/07/2022,11:49:09,2.036,5.0,5.618,0.038
29/07/2022,11:50:01,2.047,5.0,5.648,0.03
29/07/2022,11:51:01,2.051,5.0,5.682,0.034
29/07/2022,11:52:00,2.057,5.0,5.716,0.034
29/07/2022,11:53:00,2.057,5.0,5.75,0.034
29/07/2022,11:54:02,2.067,5.0,5.786,0.036
29/07/2022,11:55:09,2.085,5.0,5.824,0.038
29/07/2022,11:56:00,2.099,5.0,5.854,0.03
29/07/2022,11:57:00,2.107,5.0,5.889,0.035
29/07/2022,11:58:00,2.114,5.0,5.924,0.035
29/07/2022,11:59:01,2.117,5.0,5.961,0.037
29/07/2022,12:00:01,2.101,5.0,5.995,0.034
29/07/2022,12:01:00,2.095,5.0,6.03,0.035
29/07/2022,12:02:00,2.076,5.0,6.065,0.035
29/07/2022,12:03:02,2.075,5.0,6.1,0.035
29/07/2022,12:04:00,1.985,5.0,6.133,0.033
29/07/2022,12:05:00,2.034,5.0,6.166,0.033
29/07/2022,12:06:01,1.768,4.0,6.199,0.033
29/07/2022,12:07:00,1.612,4.0,6.228,0.029
29/07/2022,12:08:00,1.533,4.0,6.254,0.026
29/07/2022,12:09:00,2.012,5.0,6.284,0.03
29/07/2022,12:10:01,1.969,5.0,6.317,0.033
29/07/2022,12:11:01,2.044,5.0,6.351,0.034
29/07/2022,12:12:00,2.074,5.0,6.385,0.034
29/07/2022,12:13:09,2.091,5.0,6.424,0.039
29/07/2022,12:14:00,2.103,5.0,6.455,0.031
29/07/2022,12:15:00,2.109,5.0,6.49,0.035
29/07/2022,12:16:09,2.103,5.0,6.531,0.041
29/07/2022,12:17:00,2.095,5.0,6.56,0.029
29/07/2022,12:18:00,2.103,5.0,6.595,0.035
29/07/2022,12:19:01,2.111,5.0,6.63,0.035
29/07/2022,12:20:00,2.111,5.0,6.665,0.035
29/07/2022,12:21:00,2.119,5.0,6.7,0.035
29/07/2022,12:22:08,2.116,5.0,6.74,0.04
29/07/2022,12:23:01,2.113,5.0,6.771,0.031
29/07/2022,12:24:01,2.112,5.0,6.806,0.035
29/07/2022,12:25:00,2.103,5.0,6.841,0.035
29/07/2022,12:26:00,2.095,5.0,6.876,0.035
29/07/2022,12:27:00,2.095,5.0,6.911,0.035
29/07/2022,12:28:01,2.088,5.0,6.946,0.035
29/07/2022,12:29:00,2.085,5.0,6.981,0.035
29/07/2022,12:30:00,2.085,5.0,7.016,0.035
29/07/2022,12:31:01,2.088,5.0,7.05,0.034
29/07/2022,12:32:00,2.087,5.0,7.085,0.035
29/07/2022,12:33:01,2.095,5.0,7.12,0.035
29/07/2022,12:34:00,2.099,5.0,7.155,0.035
29/07/2022,12:35:00,2.106,5.0,7.19,0.035
29/07/2022,12:36:01,2.103,5.0,7.225,0.035
29/07/2022,12:37:00,2.100,5.0,7.26,0.035
29/07/2022,12:38:08,2.100,5.0,7.3,0.04
29/07/2022,12:39:00,2.097,5.0,7.33,0.03
29/07/2022,12:40:12,2.096,5.0,7.372,0.042
29/07/2022,12:42:01,2.096,5.0,7.436,0.064
29/07/2022,12:43:00,2.097,5.0,7.47,0.034
29/07/2022,12:44:00,2.092,5.0,7.505,0.035
29/07/2022,12:45:09,2.083,5.0,7.545,0.04
29/07/2022,12:46:01,2.087,5.0,7.574,0.029
29/07/2022,12:47:01,2.091,5.0,7.609,0.035
29/07/2022,12:48:01,2.095,5.0,7.644,0.035
29/07/2022,12:49:00,2.097,5.0,7.679,0.035
29/07/2022,12:50:09,2.099,5.0,7.719,0.04
29/07/2022,12:51:09,2.108,5.0,7.754,0.035
29/07/2022,12:52:01,2.111,5.0,7.784,0.03
29/07/2022,12:53:00,2.113,5.0,7.819,0.035
29/07/2022,12:54:01,2.112,5.0,7.854,0.035
29/07/2022,12:55:01,2.112,5.0,7.89,0.036
29/07/2022,12:56:00,2.103,5.0,7.925,0.035
29/07/2022,12:57:01,2.085,5.0,7.96,0.035
29/07/2022,12:58:01,2.070,5.0,7.994,0.034
29/07/2022,12:59:00,2.061,5.0,8.029,0.035
29/07/2022,13:00:00,2.027,5.0,8.063,0.034
29/07/2022,13:01:01,1.371,3.0,8.091,0.028
29/07/2022,13:02:00,1.987,5.0,8.119,0.028
29/07/2022,13:03:00,1.600,4.0,8.151,0.032
29/07/2022,13:04:01,1.294,3.0,8.175,0.024
29/07/2022,13:05:00,1.279,3.0,8.196,0.021
29/07/2022,13:06:00,1.505,3.0,8.22,0.024
29/07/2022,13:07:01,1.859,4.0,8.25,0.03
29/07/2022,13:08:01,1.476,3.0,8.276,0.026
29/07/2022,13:09:09,1.920,4.0,8.312,0.036
29/07/2022,13:10:00,1.951,4.0,8.339,0.027
29/07/2022,13:11:01,1.970,5.0,8.372,0.033
29/07/2022,13:12:01,2.009,5.0,8.405,0.033
29/07/2022,13:13:00,2.019,5.0,8.438,0.033
29/07/2022,13:14:08,1.981,5.0,8.476,0.038
29/07/2022,13:15:02,1.975,5.0,8.506,0.03
29/07/2022,13:16:01,1.985,5.0,8.538,0.032
29/07/2022,13:17:00,1.989,5.0,8.571,0.033
29/07/2022,13:18:01,1.996,5.0,8.604,0.033
29/07/2022,13:19:01,2.011,5.0,8.638,0.034
29/07/2022,13:20:09,2.030,5.0,8.676,0.038
29/07/2022,13:21:00,2.016,5.0,8.705,0.029
29/07/2022,13:22:01,2.006,5.0,8.738,0.033
29/07/2022,13:23:01,2.021,5.0,8.772,0.034
29/07/2022,13:24:00,2.027,5.0,8.806,0.034
29/07/2022,13:25:01,2.037,5.0,8.84,0.034
29/07/2022,13:26:01,2.026,5.0,8.873,0.033
29/07/2022,13:27:01,2.006,5.0,8.907,0.034
29/07/2022,13:28:01,1.965,5.0,8.941,0.034
29/07/2022,13:29:01,1.932,4.0,8.973,0.032
29/07/2022,13:30:01,1.890,4.0,9.005,0.032
29/07/2022,13:31:01,1.206,3.0,9.03,0.025
29/07/2022,13:32:01,1.167,3.0,9.05,0.02
29/07/2022,13:33:00,1.516,3.0,9.073,0.023
29/07/2022,13:34:01,1.771,4.0,9.101,0.028
29/07/2022,13:35:00,1.231,3.0,9.128,0.027
29/07/2022,13:36:01,1.162,3.0,9.147,0.019
29/07/2022,13:37:01,1.199,3.0,9.167,0.02
29/07/2022,13:38:01,1.691,4.0,9.191,0.024
29/07/2022,13:39:02,1.795,4.0,9.221,0.03
29/07/2022,13:40:00,1.847,4.0,9.251,0.03
29/07/2022,13:41:00,1.877,4.0,9.282,0.031
29/07/2022,13:42:01,1.878,4.0,9.313,0.031
29/07/2022,13:43:00,1.867,4.0,9.344,0.031
29/07/2022,13:44:01,1.855,4.0,9.375,0.031
29/07/2022,13:45:01,1.842,4.0,9.406,0.031
29/07/2022,13:46:01,1.839,4.0,9.437,0.031
29/07/2022,13:47:01,1.835,4.0,9.467,0.03
29/07/2022,13:48:01,1.838,4.0,9.498,0.031
29/07/2022,13:49:01,1.840,4.0,9.529,0.031
29/07/2022,13:50:00,1.839,4.0,9.559,0.03
29/07/2022,13:51:01,1.824,4.0,9.59,0.031
29/07/2022,13:52:00,1.807,4.0,9.62,0.03
29/07/2022,13:53:00,1.805,4.0,9.65,0.03
29/07/2022,13:54:01,1.808,4.0,9.68,0.03
29/07/2022,13:55:02,1.808,4.0,9.711,0.031
29/07/2022,13:56:00,1.798,4.0,9.741,0.03
29/07/2022,13:57:00,1.767,4.0,9.77,0.029
29/07/2022,13:58:09,1.728,4.0,9.804,0.034
29/07/2022,13:59:01,1.700,4.0,9.828,0.024
29/07/2022,14:00:00,1.640,4.0,9.855,0.027
29/07/2022,14:01:01,1.668,4.0,9.883,0.028
29/07/2022,14:02:01,1.653,4.0,9.911,0.028
29/07/2022,14:03:09,1.645,4.0,9.942,0.031
29/07/2022,14:04:00,1.637,4.0,9.965,0.023
29/07/2022,14:05:00,1.639,4.0,9.993,0.028
29/07/2022,14:06:01,1.621,4.0,10.02,0.027
29/07/2022,14:07:00,1.614,4.0,10.047,0.027
29/07/2022,14:08:00,1.603,4.0,10.074,0.027
29/07/2022,14:09:01,1.591,4.0,10.1,0.026
29/07/2022,14:10:01,1.576,4.0,10.127,0.027
29/07/2022,14:11:03,1.570,4.0,10.154,0.027
29/07/2022,14:12:01,1.568,4.0,10.179,0.025
29/07/2022,14:13:01,1.567,4.0,10.205,0.026
29/07/2022,14:14:00,1.570,4.0,10.231,0.026
29/07/2022,14:15:00,1.563,4.0,10.257,0.026
29/07/2022,14:16:01,1.555,4.0,10.284,0.027
29/07/2022,14:17:01,1.557,4.0,10.309,0.025
29/07/2022,14:18:00,1.561,4.0,10.335,0.026
29/07/2022,14:19:01,1.561,4.0,10.361,0.026
29/07/2022,14:20:00,1.560,4.0,10.387,0.026
29/07/2022,14:21:00,1.552,4.0,10.413,0.026
29/07/2022,14:22:01,1.534,4.0,10.439,0.026
29/07/2022,14:23:00,1.511,3.0,10.464,0.025
29/07/2022,14:24:09,1.480,3.0,10.493,0.029
29/07/2022,14:25:01,1.495,3.0,10.514,0.021
29/07/2022,14:26:09,1.116,3.0,10.538,0.024
29/07/2022,14:27:00,1.432,3.0,10.557,0.019
29/07/2022,14:28:01,0.923,2.0,10.576,0.019
29/07/2022,14:29:09,0.908,2.0,10.593,0.017
29/07/2022,14:30:00,0.902,2.0,10.607,0.014
29/07/2022,14:31:01,1.281,3.0,10.624,0.017
29/07/2022,14:32:01,1.066,2.0,10.644,0.02
29/07/2022,14:33:01,0.948,2.0,10.661,0.017
29/07/2022,14:34:00,0.888,2.0,10.681,0.02
29/07/2022,14:35:00,0.819,2.0,10.695,0.014
29/07/2022,14:36:01,0.796,2.0,10.708,0.013
29/07/2022,14:37:01,0.787,2.0,10.722,0.014
29/07/2022,14:38:00,0.780,2.0,10.735,0.013
29/07/2022,14:39:01,0.776,2.0,10.748,0.013
29/07/2022,14:40:01,0.768,2.0,10.76,0.012
29/07/2022,14:41:00,0.759,2.0,10.773,0.013
29/07/2022,14:42:00,0.758,2.0,10.786,0.013
29/07/2022,14:43:01,0.747,2.0,10.798,0.012
29/07/2022,14:44:01,0.721,2.0,10.811,0.013
29/07/2022,14:45:01,0.698,2.0,10.822,0.011
29/07/2022,14:46:00,0.680,2.0,10.834,0.012
29/07/2022,14:47:01,0.663,2.0,10.845,0.011
29/07/2022,14:48:00,0.646,1.0,10.856,0.011
29/07/2022,14:49:01,0.625,1.0,10.867,0.011
29/07/2022,14:50:01,0.596,1.0,10.877,0.01
29/07/2022,14:51:00,0.567,1.0,10.886,0.009
29/07/2022,14:52:00,0.546,1.0,10.896,0.01
29/07/2022,14:53:00,0.531,1.0,10.905,0.009
29/07/2022,14:54:01,0.519,1.0,10.913,0.008
29/07/2022,14:55:09,0.510,1.0,10.923,0.01
29/07/2022,14:56:00,0.506,1.0,10.93,0.007
29/07/2022,14:57:01,0.501,1.0,10.939,0.009
29/07/2022,14:58:01,0.493,1.0,10.947,0.008
29/07/2022,14:59:01,0.482,1.0,10.955,0.008
29/07/2022,15:00:00,0.472,1.0,10.963,0.008
29/07/2022,15:01:01,0.469,1.0,10.971,0.008
29/07/2022,15:02:01,0.460,1.0,10.979,0.008
29/07/2022,15:03:00,0.450,1.0,10.986,0.007
29/07/2022,15:04:01,0.443,1.0,10.994,0.008
29/07/2022,15:05:00,0.437,1.0,11.001,0.007
29/07/2022,15:06:00,0.432,1.0,11.008,0.007
29/07/2022,15:07:01,0.430,1.0,11.016,0.008
29/07/2022,15:08:01,0.430,1.0,11.023,0.007
29/07/2022,15:09:01,0.435,1.0,11.03,0.007
29/07/2022,15:10:02,0.450,1.0,11.038,0.008
29/07/2022,15:11:00,0.463,1.0,11.045,0.007
29/07/2022,15:12:01,0.476,1.0,11.053,0.008
29/07/2022,15:13:03,0.492,1.0,11.061,0.008
29/07/2022,15:14:01,0.506,1.0,11.069,0.008
29/07/2022,15:15:01,0.517,1.0,11.078,0.009
29/07/2022,15:16:01,0.524,1.0,11.086,0.008
29/07/2022,15:17:00,0.529,1.0,11.095,0.009
29/07/2022,15:18:01,0.537,1.0,11.104,0.009
29/07/2022,15:19:01,0.545,1.0,11.113,0.009
29/07/2022,15:20:00,0.551,1.0,11.122,0.009
29/07/2022,15:21:09,0.558,1.0,11.133,0.011
29/07/2022,15:22:00,0.566,1.0,11.141,0.008
29/07/2022,15:23:09,0.579,1.0,11.152,0.011
29/07/2022,15:24:00,0.593,1.0,11.16,0.008
29/07/2022,15:25:00,0.608,1.0,11.17,0.01
29/07/2022,15:26:09,0.613,1.0,11.182,0.012
29/07/2022,15:27:01,0.620,1.0,11.191,0.009
29/07/2022,15:28:01,0.621,1.0,11.201,0.01
29/07/2022,15:29:00,0.617,1.0,11.211,0.01
29/07/2022,15:30:01,0.611,1.0,11.222,0.011
29/07/2022,15:31:01,0.610,1.0,11.232,0.01
29/07/2022,15:32:01,0.614,1.0,11.242,0.01
29/07/2022,15:33:00,0.618,1.0,11.252,0.01
29/07/2022,15:34:01,0.615,1.0,11.262,0.01
29/07/2022,15:35:01,0.605,1.0,11.273,0.011
29/07/2022,15:36:00,0.590,1.0,11.282,0.009
29/07/2022,15:37:01,0.574,1.0,11.292,0.01
29/07/2022,15:38:01,0.562,1.0,11.302,0.01
29/07/2022,15:39:01,0.551,1.0,11.311,0.009
29/07/2022,15:40:09,0.544,1.0,11.321,0.01
29/07/2022,15:41:01,0.541,1.0,11.329,0.008
29/07/2022,15:42:00,0.537,1.0,11.338,0.009
29/07/2022,15:43:01,0.538,1.0,11.347,0.009
29/07/2022,15:44:01,0.544,1.0,11.356,0.009
29/07/2022,15:45:01,0.545,1.0,11.365,0.009
29/07/2022,15:46:01,0.545,1.0,11.374,0.009
29/07/2022,15:47:01,0.539,1.0,11.384,0.01
29/07/2022,15:48:01,0.535,1.0,11.392,0.008
29/07/2022,15:49:01,0.537,1.0,11.401,0.009
29/07/2022,15:50:01,0.536,1.0,11.41,0.009
29/07/2022,15:51:00,0.544,1.0,11.419,0.009
29/07/2022,15:52:09,0.537,1.0,11.43,0.011
29/07/2022,15:53:01,0.537,1.0,11.437,0.007
29/07/2022,15:54:01,0.537,1.0,11.446,0.009
29/07/2022,15:55:09,0.535,1.0,11.456,0.01
29/07/2022,15:56:01,0.527,1.0,11.464,0.008
29/07/2022,15:57:01,0.514,1.0,11.472,0.008
29/07/2022,15:58:01,0.502,1.0,11.481,0.009
29/07/2022,15:59:01,0.492,1.0,11.489,0.008
29/07/2022,16:00:00,0.487,1.0,11.497,0.008
29/07/2022,16:01:01,0.481,1.0,11.505,0.008
29/07/2022,16:02:01,0.471,1.0,11.514,0.009
29/07/2022,16:03:01,0.460,1.0,11.521,0.007
29/07/2022,16:04:01,0.447,1.0,11.529,0.008
29/07/2022,16:05:00,0.430,1.0,11.536,0.007
29/07/2022,16:06:01,0.412,1.0,11.543,0.007
29/07/2022,16:07:01,0.394,1.0,11.55,0.007
29/07/2022,16:08:00,0.378,1.0,11.556,0.006
29/07/2022,16:09:01,0.360,1.0,11.562,0.006
29/07/2022,16:10:01,0.341,1.0,11.568,0.006
29/07/2022,16:11:01,0.325,1.0,11.574,0.006
29/07/2022,16:12:01,0.308,1.0,11.579,0.005
29/07/2022,16:13:01,0.293,1.0,11.584,0.005
29/07/2022,16:14:01,0.281,1.0,11.589,0.005
29/07/2022,16:15:01,0.269,1.0,11.593,0.004
29/07/2022,16:16:01,0.261,1.0,11.598,0.005
29/07/2022,16:17:01,0.257,1.0,11.602,0.004
29/07/2022,16:18:01,0.255,1.0,11.607,0.005
29/07/2022,16:19:01,0.253,1.0,11.611,0.004
29/07/2022,16:20:01,0.254,1.0,11.615,0.004
29/07/2022,16:21:01,0.256,1.0,11.619,0.004
29/07/2022,16:22:01,0.257,1.0,11.623,0.004
29/07/2022,16:23:09,0.254,1.0,11.628,0.005
29/07/2022,16:24:01,0.253,1.0,11.632,0.004
29/07/2022,16:25:01,0.249,1.0,11.636,0.004
29/07/2022,16:26:10,0.243,1.0,11.641,0.005
29/07/2022,16:27:01,0.237,1.0,11.644,0.003